Location: Pasarilla del Rebollar
(40.6790°N, 5.0062°W)
Time: 11:50:54
(UTC+00:00)

Cosmos 841 Rocket - Pass Details

Date: 22 April 2026
Orbit: 741 x 767 km, 74.0° (Epoch: 15 May)

Event Time Altitude Azimuth Distance (km) Brightness Sun altitude
Exits shadow 03:58:32 24° 207° (SSW) 1,517 4.5 -16.7°
Maximum altitude 04:01:40 76° 289° (WNW) 775 3.4 -16.2°
Drops below altitude 10° 04:06:51 10° 16° (NNE) 2,285 6.7 -15.4°
Sets 04:09:14 0° 18° (NNE) 3,218 7.5 -15.0°
